Overview Statistics Trail Chart Weather Telemetry Raw packets
 

This is the latest recevied weather packets stored in our database for station/object HI3RRR-13. If no packets are shown the sender has not sent any weather packets the latest 10 day(s).

<< 30 31 32 33 34 35 36 >>
Time Temp. Humidity Pressure Rain* Wind** Luminosity Snow
1788190540 32.22° C 61% 1014 hPa 0 mm - - -
1788189939 32.22° C 61% 1014 hPa 0 mm - - -
1788189339 32.22° C 62% 1014 hPa 0 mm - - -
1788188738 32.22° C 64% 1014 hPa 0 mm - - -
1788188137 31.11° C 68% 1014 hPa 0 mm - - -
1788187537 31.11° C 68% 1014 hPa 0 mm - - -
1788186936 31.11° C 68% 1014 hPa 0 mm - - -
1788186336 30.56° C 71% 1014 hPa 0 mm - - -
1788185735 30.56° C 72% 1014 hPa 0 mm - - -
1788185134 30° C 74% 1014 hPa 0 mm - - -
1788184534 29.44° C 78% 1014 hPa 0 mm - - -
1788183933 29.44° C 78% 1014 hPa 0 mm - - -
1788183333 29.44° C 78% 1014 hPa 0 mm - - -
1788182732 29.44° C 78% 1013 hPa 0 mm - - -
1788182132 29.44° C 76% 1014 hPa 0 mm - - -
1788181531 30° C 80% 1014 hPa 0 mm - - -
1788180931 30.56° C 93% 1014 hPa 0 mm - - -
1788180330 26.11° C 91% 1014 hPa 0 mm - - -
1788179729 26.11° C 91% 1014 hPa 0 mm - - -
1788179129 25° C 94% 1014 hPa 0 mm - - -
1788178528 25° C 94% 1014 hPa 0 mm - - -
1788177927 24.44° C 98% 1014 hPa 0 mm - - -
1788177327 24.44° C 98% 1014 hPa 0 mm - - -
1788176727 24.44° C 98% 1014 hPa 0 mm - - -
1788176126 24.44° C 98% 1014 hPa 0 mm - - -

* Rain latest hour (hover to see other rain measurements)
** Current wind speed in m/s (hover to see current wind gust speed)